Regional Weather Roundup
Issued by NWS

Home | Current Version | Previous Version | Graphics & Text | Print | Product List | Glossary On
Versions: 1 2 3 4 5 6 7 8 9 10 11 12 13 14 15 16 17 18 19 20 21 22 23 24 25 26 27 28 29 30 31 32 33 34 35 36 37 38 39 40 41 42 43 44 45 46 47 48 49 50
000
ASUS43 KIND 201909
RWRIN

WEATHER ROUNDUP FOR INDIANA
NATIONAL WEATHER SERVICE INDIANAPOLIS IN
300 PM EDT FRI OCT 20 2017

NOTE: "FAIR" INDICATES FEW OR NO CLOUDS BELOW 12,000 FEET WITH NO
SIGNIFICANT WEATHER AND/OR OBSTRUCTIONS TO VISIBILITY.

* - STATION DOES NOT REPORT WEATHER SUCH AS PRECIPITATION OR FOG.

+ - STATION NOT QUALITY CONTROLLED BY THE NATIONAL WEATHER SERVICE.
    USE DATA WITH CAUTION...ESPECIALLY DEWPOINT AND RELATIVE
    HUMIDITY OBSERVATIONS.

INZ001>003-010>013-019-020-202000-
NORTHWEST INDIANA

CITY           SKY/WX    TMP DP  RH WIND       PRES   REMARKS
GARY /AIRPORT/ MOSUNNY   79  46  31 SW12      30.12F
KNOX *+        SUNNY     77  50  38 SW12      30.15F
LA PORTE +     SUNNY     76  52  43 S12G17    30.15F
MICHIGAN CITY+ SUNNY     77  52  41 S10       30.13F
MONTICELLO +   SUNNY     76  48  37 S13       30.16F
RENSSELAER +   SUNNY     77  32  19 S12       30.14F
VALPARAISO     SUNNY     79  52  38 S9G18     30.14F

$$

LMZ046-743>745-202000-
SOUTHERN LAKE MICHIGAN

STATION/POSITION TIME  TEMP    WIND        PRES    WAVE
                       AIR SEA DIR/SP/G            HT
                 (UTC) (F)     (DEG/KT/KT) (MB)    (FT)
BURNS HARBOR     1840   75     180/  9/ 18 1020.7F
MICHIGAN CITY    1840   74     180/ 15/ 17   N/A
5NW MICH CITY    1900   69 58  210/ 10/ 12   N/A     1

$$

INZ004-005-014>016-021>024-202000-
NORTH CENTRAL INDIANA

CITY           SKY/WX    TMP DP  RH WIND       PRES   REMARKS
ELKHART        SUNNY     75  50  41 S12G17    30.16F
GOSHEN         SUNNY     75  50  41 S14       30.16F
LOGANSPORT +   SUNNY     75  50  41 S14       30.18F
PERU/GRISSOM   SUNNY     76  51  40 SW14      30.17F
SOUTH BEND     SUNNY     75  51  43 S14       30.15F
WARSAW +       SUNNY     73  52  46 SW7       30.17F

$$

INZ006>009-017-018-025>027-202000-
NORTHEAST INDIANA

CITY           SKY/WX    TMP DP  RH WIND       PRES   REMARKS
AUBURN +       SUNNY     75  50  41 S7        30.20F
FORT WAYNE     MOSUNNY   76  51  41 S8G17     30.19F
HUNTINGTON +   SUNNY     75  49  40 SW6       30.19F
KENDALLVILLE + SUNNY     75  53  45 S10G18    30.19F

$$

INZ028-029-035-036-043>045-051>053-202000-
WEST CENTRAL INDIANA

CITY           SKY/WX    TMP DP  RH WIND       PRES   REMARKS
CRAWFORDSVL +  SUNNY     73  48  40 S8G16     30.18F
GREENCASTLE +  SUNNY     72  48  43 S5        30.19F
LAFAYETTE      SUNNY     75  51  43 S10G18    30.16F
TERRE HAUTE    SUNNY     75  50  41 S12       30.18F

$$

INZ030>032-037>040-046>048-054>057-064-065-202000-
CENTRAL INDIANA

CITY           SKY/WX    TMP DP  RH WIND       PRES   REMARKS
CP ATTERBURY + SUNNY     75  48  38 S8        30.21F
COLUMBUS       SUNNY     73  45  35 S6        30.22F
FRANKFORT +    PTSUNNY   78  51  38 S6G16     30.20F
GREENWOOD *+   SUNNY     80  50  35 SW8       30.21F
INDIANAPOLIS   MOSUNNY   76  51  41 S12G20    30.20F
-EAGLE CREEK   SUNNY     75  50  41 S8        30.19F
KOKOMO +       SUNNY     76  52  43 S13       30.19F
MT COMFORT *+  SUNNY     75  55  50 S12       30.20F
SHELBYVILLE    SUNNY     77  49  37 S12       30.20F
ZIONSVILLE +   SUNNY     74  50  43 S10       30.21F

$$

INZ033-034-041-042-049-050-058-059-202000-
EAST CENTRAL INDIANA

CITY           SKY/WX    TMP DP  RH WIND       PRES   REMARKS
MUNCIE         SUNNY     78  51  38 S3        30.19F
RICHMOND +     SUNNY     73  52  46 S3        30.23F

$$

INZ060-061-067>069-081>083-085>088-202000-
SOUTHWEST INDIANA

CITY           SKY/WX    TMP DP  RH WIND       PRES   REMARKS
EVANSVILLE     SUNNY     76  50  40 S7        30.19F
HUNTINGBURG +  SUNNY     76  52  43 SE8       30.20F
WASHINGTON +   SUNNY     76  44  31 S5        30.19F

$$

INZ062-063-066-070>080-084-089>092-202000-
SOUTH CENTRAL AND SOUTHEAST INDIANA

CITY           SKY/WX    TMP DP  RH WIND       PRES   REMARKS
BEDFORD +      SUNNY     77  43  29 S5        30.20F
BLOOMINGTON    SUNNY     75  48  38 VRB5      30.20F
MADISON *+     SUNNY     77  46  33 S6        30.24F
NORTH VERNON + SUNNY     75  50  41 S6        30.22F
SEYMOUR +      SUNNY     77  52  41 SE6       30.21F

$$





USA.gov is the U.S. government's official web portal to all federal, state and local government web resources and services.